Regional Weather Roundup
Issued by NWS

Home | Current Version | Previous Version | Text Only | Print | Product List | Glossary Off
Versions: 1 2 3 4 5 6 7 8 9 10 11 12 13 14 15 16 17 18 19 20 21 22 23 24 25 26 27 28 29 30 31 32 33 34 35 36 37 38 39 40 41 42 43 44 45 46 47 48 49

000
ASUS45 KCYS 122210
RWRWY

WYOMING REGIONAL WEATHER ROUNDUP
NATIONAL WEATHER SERVICE CHEYENNE WY
300 PM MST FRI FEB 12 2016

NOTE:  "FAIR" INDICATES FEW OR NO CLOUDS BELOW 12,000 FEET
WITH NO SIGNIFICANT WEATHER AND/OR OBSTRUCTIONS TO VISIBILITY.

WYZ001-122300-
YELLOWSTONE NATIONAL PARK

CITY           SKY/WX    TMP DP  RH WIND       PRES   REMARKS
LK YELLOWSTONE   N/A     44  14  29 SW8       30.28F
W YELLOWSTONE  NOT AVBL

$$
WYZ002>013-054>058-071-098>099-122300-
NORTHERN WYOMING

CITY           SKY/WX    TMP DP  RH WIND       PRES   REMARKS
JACKSON        SUNNY     37  30  75 CALM      30.26F
CODY           FAIR      55  25  30 E6        30.12F
GREYBULL       FAIR      53  26  35 S8        30.13F
WORLAND        FAIR      50  28  42 NE3       30.14F
SHERIDAN       MOSUNNY   48  28  46 SE5       30.14F
BUFFALO        FAIR      47  30  51 SE16      30.17S
GILLETTE       CLOUDY    41  30  65 SE9       30.20F
HULETT         CLOUDY    36  30  80 N3        30.24S
NEWCASTLE      CLOUDY    32  28  86 S12       30.27S WCI  23

$$
WYZ014>020-022>026-101>103-122300-
CENTRAL WYOMING

CITY           SKY/WX    TMP DP  RH WIND       PRES   REMARKS
BIG PINEY      FAIR      45  26  47 VRB3      30.30F
PINEDALE         N/A     46  27  46 CALM      30.29F
DUBOIS         FAIR      52  12  20 W26G37    30.18F
LANDER         FAIR      42  29  59 CALM      30.15F
RIVERTON       FAIR      46  29  51 SE3       30.17F
CASPER         FAIR      47  28  47 SW15      30.18F
DOUGLAS        FAIR      47  30  51 SE13      30.21F

$$
WYZ021-027>030-104>119-122300-
SOUTHERN WYOMING

CITY           SKY/WX    TMP DP  RH WIND       PRES   REMARKS
EVANSTON       FAIR      43  19  38 SW3       30.32F
KEMMERER       FAIR      45  16  31 NW5       30.31F
FORT BRIDGER   CLEAR     46  21  36 W12       30.33F
ROCK SPRINGS   FAIR      48  17  29 W13       30.29F
DIXON          FAIR      40  27  60 N6        30.35F
RAWLINS        FAIR      43  22  43 SW6       30.26F
SARATOGA       FAIR      45  21  39 SW6G17    30.28F
LARAMIE        PTSUNNY   47  27  45 N6        30.24F
CHEYENNE       FAIR      52  28  39 S10       30.22F
TORRINGTON     FAIR      43  31  62 E16       30.24F
PINE BLUFFS    FAIR      46  32  57 SE14G20   30.24F

$$



USA.gov is the U.S. government's official web portal to all federal, state and local government web resources and services.